Location: Treviso
(45.6669°N, 12.2430°E)
Time: 15:42:07
(UTC+01:00)

N. Korean satellite - Visible Passes

Search period start: 27 November 2022 00:00
Search period end: 07 December 2022 00:00
Orbit: 422 x 454 km, 97.3° (Epoch: 26 November)

Date Brightness Start Highest point End Pass type
(mag) Time Alt. Az. Time Alt. Az. Time Alt. Az.
27 Nov 10.0 04:25:28 10° ENE 04:26:28 11° E 04:27:26 10° ESE visible
27 Nov 6.6 05:55:56 10° N 05:59:16 48° WNW 06:02:33 10° SSW visible
28 Nov 7.3 05:17:19 10° NNE 05:20:39 49° E 05:23:58 10° S visible
28 Nov 8.3 06:51:24 10° NW 06:52:46 12° WNW 06:54:06 10° W visible
28 Nov 9.2 17:21:45 10° SSW 17:24:28 23° W 17:27:15 10° NW visible
29 Nov 9.4 04:39:32 10° NE 04:41:48 16° E 04:44:03 10° SE visible
29 Nov 7.1 06:11:20 10° N 06:14:25 31° WNW 06:17:27 10° SW visible
30 Nov 6.4 05:32:23 10° NNE 05:35:50 80° ESE 05:39:12 10° S visible
30 Nov 9.7 17:37:35 10° SW 17:39:41 15° W 17:41:47 10° NW visible
01 Dec 8.8 04:54:07 10° NE 04:56:59 24° E 04:59:48 10° SSE visible
01 Dec 7.7 06:26:43 10° NNW 06:29:23 21° WNW 06:32:01 10° WSW visible
01 Dec 7.7 16:57:29 10° S 17:00:44 46° W 17:04:02 10° NNW visible
02 Dec 6.3 05:47:24 10° N 05:50:49 64° WNW 05:54:09 10° SSW visible
02 Dec 10.2 17:54:16 10° W 17:54:47 10° W 17:55:18 10° W visible
03 Dec 7.9 05:08:46 10° NNE 05:11:58 37° E 05:15:08 10° SSE visible
03 Dec 8.1 06:42:11 10° NNW 06:44:11 15° WNW 06:46:08 10° W visible
03 Dec 8.7 17:12:40 10° SSW 17:15:40 29° W 17:18:43 10° NNW visible
04 Dec 9.7 04:31:17 10° ENE 04:32:53 13° E 04:34:30 10° ESE visible
04 Dec 6.8 06:02:23 10° N 06:05:37 40° WNW 06:08:47 10° SW visible
05 Dec 6.9 05:23:25 10° NNE 05:26:47 59° E 05:30:07 10° S visible
05 Dec 8.5 06:58:23 10° NW 06:58:47 10° WNW 06:59:13 10° WNW visible
05 Dec 9.4 17:27:57 10° SW 17:30:30 20° W 17:33:06 10° NW visible
06 Dec 9.2 04:45:14 10° NE 04:47:44 19° E 04:50:11 10° SE visible
06 Dec 7.3 06:17:20 10° N 06:20:15 27° WNW 06:23:07 10° SW visible
